This is the latest recevied weather packets stored in our database for station/object EA5DFV. If no packets are shown the sender has not sent any weather packets the latest 1 day(s).
| Time | Temp. | Humidity | Pressure | Rain* | Wind** | Luminosity | Snow |
|---|---|---|---|---|---|---|---|
| 1777987407 | 19.44° C | 81% | 1010 hPa | 3.05 mm | 0.89 m/s, 82° | 213 W/m² | - |
| 1777987117 | 18.89° C | 81% | 1010.1 hPa | 3.05 mm | 1.34 m/s, 169° | 186 W/m² | - |
| 1777986814 | 19.44° C | 82% | 1010 hPa | 7.11 mm | 0.45 m/s, 167° | 239 W/m² | - |
| 1777986507 | 18.89° C | 82% | 1010.1 hPa | 8.89 mm | 0.89 m/s, 174° | 863 W/m² | - |
| 1777986203 | 18.89° C | 82% | 1010.1 hPa | 8.89 mm | 1.34 m/s, 119° | 211 W/m² | - |
| 1777985914 | 18.89° C | 83% | 1010.2 hPa | 8.89 mm | 0.89 m/s, 86° | 250 W/m² | - |
| 1777985605 | 18.89° C | 82% | 1010.2 hPa | 8.89 mm | 0.45 m/s, 86° | 214 W/m² | - |
| 1777985315 | 18.89° C | 82% | 1010.3 hPa | 7.87 mm | 0.89 m/s, 84° | 192 W/m² | - |
| 1777985009 | 18.89° C | 82% | 1010.4 hPa | 7.87 mm | 0.89 m/s, 82° | 232 W/m² | - |
| 1777984702 | 18.89° C | 81% | 1010.5 hPa | 7.87 mm | 0.45 m/s, 153° | 195 W/m² | - |
| 1777984417 | 18.89° C | 81% | 1010.6 hPa | 7.87 mm | 0.89 m/s, 153° | 186 W/m² | - |
| 1777984107 | 19.44° C | 80% | 1010.5 hPa | 7.87 mm | 1.34 m/s, 146° | 123 W/m² | - |
| 1777983798 | 20° C | 79% | 1010.5 hPa | 6.1 mm | 1.34 m/s, 145° | 144 W/m² | - |
| 1777983512 | 20.56° C | 76% | 1010.5 hPa | 6.1 mm | 1.79 m/s, 144° | 167 W/m² | - |
| 1777983202 | 21.11° C | 75% | 1010.6 hPa | 2.03 mm | 1.34 m/s, 156° | 174 W/m² | - |
| 1777982913 | 21.67° C | 71% | 1010.6 hPa | 0 mm | 1.34 m/s, 157° | 91 W/m² | - |
| 1777982603 | 22.22° C | 68% | 1010.4 hPa | 0 mm | 1.34 m/s, 153° | 125 W/m² | - |
| 1777982313 | 22.78° C | 66% | 1010.5 hPa | 0 mm | 1.34 m/s, 72° | 114 W/m² | - |
| 1777982008 | 23.33° C | 65% | 1010.3 hPa | 0 mm | 0.45 m/s, 24° | 151 W/m² | - |
| 1777981704 | 23.33° C | 58% | 1010.4 hPa | 0 mm | 1.34 m/s, 24° | 202 W/m² | - |
| 1777981415 | 23.33° C | 47% | 1010.5 hPa | 0 mm | 0 m/s | 355 W/m² | - |
| 1777981105 | 23.89° C | 44% | 1010.6 hPa | 0 mm | 0 m/s | 220 W/m² | - |
| 1777980799 | 23.89° C | 44% | 1010.6 hPa | 0 mm | 0.45 m/s, 15° | 209 W/m² | - |
| 1777980513 | 24.44° C | 43% | 1010.5 hPa | 0 mm | 1.34 m/s, 15° | 374 W/m² | - |
| 1777980202 | 24.44° C | 44% | 1010.5 hPa | 0 mm | 0.45 m/s, 17° | 527 W/m² | - |
* Rain latest hour (hover to see other rain measurements)
** Current wind speed in m/s (hover to see current wind gust speed)